Cloud_Cover
100 97 100 100 100 100 98 100 100 98 94 86 100 100 100 100 100 100 100 55 5 5 5 47 5 34 13 88 38 96 100 30 11 57 97 5 1 0 0 0 0 0 4 4 0 5 5 4 0
49 54 100 100 100 100 100 100 100 100 100 100 54 71 95 100 100 100 88 5 5 5 5 5 5 5 55 16 100 100 100 100 100 81 2 0 0 0 0 0 2 0 0 0 5 5 6 2 5
97 89 78 100 100 100 100 98 100 96 100 100 100 100 100 100 63 5 8 13 5 79 35 71 97 100 41 96 100 100 100 100 29 0 0 0 0 0 2 0 0 0 0 0 5 5 4 0 0
100 100 100 100 100 100 100 92 99 100 100 100 100 99 76 42 26 99 77 32 6 5 87 77 98 77 100 100 96 9 64 2 0 0 0 0 0 0 0 0 0 0 0 0 1 0 0 0 5
98 100 100 100 100 100 77 74 100 98 100 79 27 60 24 5 20 23 85 27 2 4 5 39 32 1 0 0 0 0 0 0 0 0 0 0 0 0 0 0 0 0 0 0 0 0 0 0 4
40 100 100 100 100 100 100 97 100 100 81 67 14 0 2 6 13 22 29 13 4 0 1 1 1 3 5 1 1 0 0 0 0 0 0 0 0 0 0 0 0 0 0 0 0 0 0 3 5
100 100 100 100 100 100 100 100 100 80 27 6 0 5 26 3 0 0 0 15 0 0 0 0 4 1 15 0 0 0 0 0 0 0 0 0 0 0 0 0 1 3 0 0 0 4 5 0 2
100 100 100 100 100 100 31 16 67 12 0 0 3 0 18 0 0 0 1 11 0 0 0 0 0 0 0 0 0 0 0 0 0 0 0 0 0 10 0 0 5 34 47 5 86 100 99 84 5
100 100 100 100 100 100 56 93 17 66 2 0 21 0 0 0 0 0 70 96 0 0 0 0 0 0 0 0 0 0 0 0 0 0 0 6 5 3 0 10 90 8 40 1 1 21 68 19 9
86 100 100 100 100 97 27 3 21 25 20 48 0 0 0 0 0 0 19 34 0 0 0 0 0 0 0 0 0 0 0 0 0 0 3 24 22 5 24 33 5 6 3 1 1 0 0 0 8
100 100 100 100 100 74 54 0 5 0 0 0 0 0 0 0 0 0 1 0 0 0 0 0 0 0 0 0 0 0 0 0 5 5 5 62 70 4 98 84 38 5 4 3 0 0 0 1 0
100 98 100 100 92 72 38 0 0 3 3 0 0 0 0 0 0 0 0 0 0 0 0 0 0 0 0 0 0 0 0 0 3 0 20 5 14 7 37 6 1 85 92 28 5 3 0 9 0
12 74 97 63 5 100 79 5 0 2 34 3 0 0 0 0 0 0 0 0 0 0 0 0 0 0 0 6 1 0 14 27 0 0 9 5 0 52 8 21 32 64 12 8 10 60 0 27 32
80 14 92 5 46 0 99 26 5 5 0 0 0 0 0 44 0 0 0 0 0 0 0 8 0 0 10 46 0 68 100 24 79 19 78 89 0 3 22 25 0 27 41 98 3 8 28 100 67
7 11 100 77 66 70 100 75 8 5 0 0 0 0 1 0 0 0 0 0 0 0 0 8 0 0 0 0 0 0 20 0 93 31 5 30 0 1 0 0 0 3 10 14 1 32 6 8 6
1 4 14 98 99 78 2 12 10 100 95 2 0 4 0 0 0 0 0 0 0 0 0 0 0 0 0 0 0 0 0 0 13 1 52 80 71 5 0 0 0 0 37 26 0 0 0 68 0
0 0 4 89 79 100 70 7 5 76 99 3 0 0 0 0 0 0 0 0 0 0 0 0 0 0 0 0 0 0 0 0 0 3 5 99 1 4 0 0 0 98 90 91 0 100 1 39 0
0 0 0 99 29 99 20 97 100 99 20 0 0 0 0 0 0 0 0 0 0 0 0 0 0 0 0 0 0 0 0 0 0 0 15 92 92 0 28 0 6 64 60 21 3 10 51 6 0
0 0 0 99 100 6 100 100 100 0 0 0 0 0 0 0 0 0 0 0 0 0 0 0 0 0 0 0 0 0 0 0 0 0 0 0 0 8 0 0 7 99 61 57 99 5 0 2 1
0 0 0 99 62 100 67 100 98 8 0 0 0 0 0 0 0 0 0 0 0 0 0 0 0 0 0 0 0 0 0 0 0 19 38 0 30 13 16 0 0 45 60 5 84 88 80 0 0
0 0 0 67 74 100 88 77 4 1 0 0 0 0 0 0 0 0 0 0 0 0 0 0 0 0 0 0 0 0 0 11 27 0 28 100 79 7 0 5 22 0 0 1 5 1 32 70 3
0 0 0 21 45 29 98 4 5 5 0 0 0 0 0 0 0 0 0 0 0 0 0 0 0 0 0 0 0 0 0 3 0 96 66 0 0 0 0 0 0 0 0 0 0 0 0 3 5
0 0 0 56 100 44 100 98 100 5 4 5 4 2 0 0 0 0 0 0 0 0 0 0 0 0 0 0 0 0 0 0 0 22 11 0 0 0 0 0 0 0 0 5 4 5 5 5 12
0 0 0 5 100 84 90 99 48 26 2 96 30 5 4 0 0 0 0 0 0 0 0 0 0 0 0 0 0 0 0 0 0 0 0 0 0 0 0 0 0 12 20 5 4 5 5 97 34
4 0 0 2 16 5 8 61 2 78 42 5 34 77 3 0 0 0 0 0 0 0 0 0 0 0 0 0 0 0 0 0 0 0 0 0 0 0 0 4 29 16 0 6 45 5 5 5 30
5 0 0 0 0 0 2 3 0 3 100 88 9 75 96 95 0 0 0 0 0 0 0 0 0 0 0 0 0 0 0 0 0 0 0 0 0 0 0 0 57 6 0 0 0 5 5 5 4
0 5 1 0 0 0 0 0 0 0 5 3 90 100 100 100 100 39 34 0 0 0 0 0 0 0 0 0 0 0 0 0 0 0 0 0 0 0 0 0 1 0 0 0 0 0 1 2 5
0 1 0 0 0 0 0 0 0 51 32 8 24 100 90 100 100 100 35 13 0 0 0 0 0 0 0 0 0 0 0 0 0 0 0 0 0 0 0 49 0 0 0 0 0 0 0 0 0
0 0 0 0 0 0 3 0 0 98 57 78 2 63 81 100 100 0 0 11 22 0 0 0 0 0 0 0 0 0 0 0 0 0 0 0 0 0 0 0 0 0 4 4 0 0 0 39 3
0 0 0 0 0 0 0 4 0 79 63 2 42 100 99 38 95 5 0 0 0 0 0 0 0 0 0 0 0 0 0 0 0 0 0 0 0 0 0 0 0 0 0 1 0 0 0 0 4